Regional Weather Roundup
Issued by NWS

Current Version | Previous Version | Text Only | Print | Product List | Glossary On
Versions: 1 2 3 4 5 6 7 8 9 10 11 12 13 14 15 16 17 18 19 20 21 22 23 24 25 26 27 28 29 30 31 32 33 34 35 36 37 38 39 40 41 42 43 44 45 46 47 48 49 50
000
ASCA44 KEWX 261520
RWRMX

LATIN AMERICA AND CARIBBEAN REGIONAL WEATHER ROUNDUP
NATIONAL WEATHER SERVICE AUSTIN/SAN ANTONIO TX
1000 AM CDT THU MAY 26 2016

NOTE: "FAIR" INDICATED FEW OR NO CLOUDS BELOW 12,000 FEET WITH NO
SIGNIFICANT WEATHER AND/OR OBSTRUCTIONS TO VISIBILITY.

BAJA CALIFORNIA

CITY           SKY/WX    TMP DP  RH WIND       PRES   REMARKS
LORETO         SUNNY     77  70  78 NE8       29.91R
LA PAZ         PTSUNNY   72  54  53 S8        29.95F
MEXICALI       SUNNY     66  41  39 W5        29.95R
S.J. DEL CABO  CLOUDY    82  59  44 CALM      29.91S
TIJUANA        CLOUDY    59  50  72 E3        30.11S

NORTHWESTERN MEXICO

CITY           SKY/WX    TMP DP  RH WIND       PRES   REMARKS
CULIACAN       CLOUDY    79  66  65 CALM      29.93S
DURANGO        CLOUDY    70  43  37 S5        30.30S
GUAYMAS        SUNNY     73  57  56 CALM      29.88S
HERMOSILLO     SUNNY     72  43  35 CALM      29.96S
CD. JUAREZ     SUNNY     75  41  29 W16       29.94R
LOS MOCHIS     PTSUNNY   79  63  57 CALM      29.91
OBREGON        SUNNY     75  57  53 CALM      29.88S

NORTHEASTERN MEXICO

CITY           SKY/WX    TMP DP  RH WIND       PRES   REMARKS
CHIHUAHUA      SUNNY     77  43  29 S15       30.09S
MATAMOROS      PTSUNNY   86  79  79 S12       29.96R HX  99
MONCLOVA       PTSUNNY   91  59  33 CALM      29.95S HX  90
MONTERREY      PTSUNNY   82  68  61 W7        29.94S
NUEVO LAREDO   PTSUNNY   82  77  83 SE14      29.89R HX  91
PIEDRAS NEGRAS MOSUNNY   79  70  73 SE12      29.91R
REYNOSA        PTSUNNY   82  75  78 SE9       29.92F
SALTILLO       PTSUNNY   79  63  57 S6        30.22F
TORREON        MOSUNNY   84  55  37 CALM      30.09F
CD. VICTORIA   CLOUDY    73  73 100 S9        29.97S

WESTERN MEXICO

CITY           SKY/WX    TMP DP  RH WIND       PRES   REMARKS
AGUASCALIENTES PTSUNNY   73  46  38 W7        30.31S
COLIMA         PTSUNNY   79  61  53 CALM      30.05R
DEL BAJIO      MOSUNNY   75  54  46 SW5       30.34R
GUADALAJARA    PTSUNNY   77  41  27 CALM      30.21F
MANZANILLO     MOSUNNY   82  72  69 NW7       29.88R
MAZATLAN       PTSUNNY   82  75  78 CALM      29.91R
P. VALLARTA    PTSUNNY   81  68  65 CALM      29.90R
URUAPAN        CLOUDY    73  61  64 CALM      30.23R
ZACATECAS      PTSUNNY   68  45  42 E6        30.36S

CENTRAL MEXICO

CITY           SKY/WX    TMP DP  RH WIND       PRES   REMARKS
CUERNAVACA       N/A    N/A N/A N/A MISG        N/A
MEXICO CITY    PTSUNNY   68  48  49 E6        30.40S
MORELIA        CLOUDY    66  61  82 CALM      30.29S
POZA RICA      CLOUDY    84  77  79 E7        30.01R HX  94
PUEBLA         PTSUNNY   68  50  52 E3        30.40S
QUERETARO      PTSUNNY   70  54  56 CALM      30.36S
S. LUIS POTOSI PTSUNNY   72  54  53 E5        30.31S
TAMPICO        CLOUDY    82  77  83 SE6       30.00R HX  91
TOLUCA         PTSUNNY   63  52  67 NW5       30.49S HAZE

SOUTHERN MEXICO

CITY           SKY/WX    TMP DP  RH WIND       PRES   REMARKS
ACAPULCO       CLOUDY    86  73  66 W5        29.89R HX  93
B. DE HUATULCO MOSUNNY   84  75  74 E6        29.96R HX  92
OAXACA         PTSUNNY   72  52  49 NW2       30.28S
P. ESCONDIDO   SUNNY     84  77  79 SE7       29.99R HX  94
VERACRUZ       PTSUNNY   86  77  74 E5        29.94F HX  97
ZIHUATANEJO    PTSUNNY   84  73  70 W8        29.87F HX  91

YUCATAN PENINSULA

CITY           SKY/WX    TMP DP  RH WIND       PRES   REMARKS
CAMPECHE       MOSUNNY   90  75  62 E12       29.94S HX 100
CANCUN         PTSUNNY   86  77  74 E9        30.02S HX  97
CHETUMAL       MOSUNNY   84  77  79 E7        29.90F HX  94
CD. DEL CARMEN MOSUNNY   90  73  58 SE10      29.95R HX  98
COZUMEL        PTSUNNY   82  73  74 E9        30.01R
MERIDA         PTSUNNY   88  75  66 SE10      29.99F HX  97
MINATITLAN     PTSUNNY   86  79  79 N12       29.88R HX  99
TAPACHULA      MOSUNNY   88  82  84 CALM      29.86F HX 108
TUX. GUTIERREZ SUNNY     84  66  54 CALM      30.00S
VILLAHERMOSA   MOSUNNY   88  77  70 E12       29.94R HX 100

CENTRAL AMERICA

CITY           SKY/WX    TMP DP  RH WIND       PRES   REMARKS
BELIZE CITY    MOSUNNY   90  77  66 E8        29.99S HX 102
MANAGUA        PTSUNNY   90  72  55 E16       29.86S HX  96

CARIBBEAN

CITY           SKY/WX    TMP DP  RH WIND       PRES   REMARKS
ARUBA          MOSUNNY   86  73  66 E21       29.89S HX  93
CURACAO        MOSUNNY   90  73  58 SE16      29.94S HX  98
KINGSTON       MOSUNNY   88  72  58 SW6       29.94S HX  94
NASSAU         MOSUNNY   82  73  74 NE13      30.09R
SAN JUAN       PTSUNNY   84  70  61 NE14      30.00F
SANTO DOMINGO  MOSUNNY   84  75  74 E5        29.97S HX  92
ST. CROIX      PTSUNNY   84  70  61 E9        30.00
ST. KITTS      MOSUNNY   84  72  65 E14       30.00S
ST. MAARTEN    HVY RAIN  81  73  78 E10G24    30.00S
ST. THOMAS     MOSUNNY   86  72  62 E9        30.00  HX  92

$$





USA.gov is the U.S. government's official web portal to all federal, state and local government web resources and services.